Main page


Airports :

Zanjan, Iran

latitude: 36-41N, longitude: 048-29E, elevation: 1663 m

Current weather observation

The report was made 37 minutes ago, at 04:00 UTC
Wind 10 kt from the East/Southeast
Temperature 4°C
Humidity 87%
Pressure 1010 hPa
Visibility 10 km or more
Few clouds at a height of 2000 ft
Broken clouds at a height of 7000 ft

METAR: OITZ 170400Z 12010KT 9999 FEW020 BKN070 04/02 Q1010

Time: 08:07 (04:37 UTC)

TAF: missing

Weather observations and forecasts of more than 4000 airports (METAR and TAF reports).

The available stations are represented by yellow and red dots on the map.

Hover mouse over dot to see the name of the station.

Then click to see weather observations and forecasts.

To change the map : click on the green buttons with a black cross to zoom in, on the green button with a dash to zoom out, or on the green arrows for adjacent maps.